Location: Colonia Mina de C?rbuni
(46.1667°N, 22.7167°E)
Time: 16:52:16
(UTC+00:00)

S-56A Canister/Altair - Visible Passes

Search period start: 13 April 2024 00:00
Search period end: 23 April 2024 00:00
Orbit: 638 x 2489 km, 38.9° (Epoch: 12 April)

Date Brightness Start Highest point End Pass type
(mag) Time Alt. Az. Time Alt. Az. Time Alt. Az.
13 Apr 9.2 18:47:25 10° WSW 18:55:25 56° S 19:04:22 19° ESE visible
13 Apr 9.5 20:50:36 10° W 21:00:16 55° SSW 21:01:41 53° S visible
13 Apr 10.6 22:55:01 10° W 22:59:01 23° WSW 22:59:01 23° WSW visible
14 Apr 9.1 18:14:18 10° WSW 18:21:44 53° SSE 18:32:16 12° E visible
14 Apr 9.4 20:17:16 10° W 20:26:21 56° S 20:29:36 45° SE visible
14 Apr 10.3 22:21:21 10° W 22:26:56 29° WSW 22:26:56 29° WSW visible
15 Apr 9.1 17:41:15 10° WSW 17:48:08 50° SSE 17:58:27 10° E visible
15 Apr 9.3 19:43:59 10° W 19:52:30 56° S 19:57:31 36° SE visible
15 Apr 10.0 21:47:48 10° W 21:54:50 36° SW 21:54:50 36° SW visible
16 Apr 9.2 19:10:46 10° W 19:18:43 56° S 19:25:27 26° ESE visible
16 Apr 9.8 21:14:19 10° W 21:22:46 40° SSW 21:22:46 40° SSW visible
17 Apr 9.1 18:37:37 10° WSW 18:45:00 55° S 18:53:23 18° ESE visible
17 Apr 9.7 20:40:56 10° W 20:49:35 42° SSW 20:50:43 41° S visible
17 Apr 10.9 22:46:15 10° W 22:48:03 14° WSW 22:48:03 14° WSW visible
18 Apr 9.0 18:04:29 10° WSW 18:11:22 54° S 18:21:21 11° ESE visible
18 Apr 9.6 20:07:37 10° W 20:15:46 44° SSW 20:18:41 38° SSE visible
18 Apr 10.6 22:12:26 10° W 22:16:01 19° WSW 22:16:01 19° WSW visible
19 Apr 9.4 19:34:21 10° W 19:42:01 45° SSW 19:46:40 31° SSE visible
19 Apr 10.4 21:38:45 10° W 21:44:01 23° SW 21:44:01 23° SW visible
20 Apr 9.3 19:01:09 10° W 19:08:20 45° SSW 19:14:42 23° SE visible
20 Apr 10.2 21:05:12 10° W 21:12:02 26° SW 21:12:02 26° SW visible
21 Apr 9.2 18:27:59 10° W 18:34:42 46° S 18:42:45 16° SE visible
21 Apr 10.1 20:31:44 10° W 20:38:56 28° SSW 20:40:05 27° SSW visible
22 Apr 9.1 17:54:52 10° W 18:01:08 46° S 18:10:26 10° ESE visible
22 Apr 9.9 19:58:22 10° W 20:05:15 29° SSW 20:08:10 25° S visible
